Location: �perlecques
(50.8057°N, 2.1521°E)
Time: 00:03:31
(UTC+00:00)

VELOX 1 - Pass Details

Date: 03 October 2021
Orbit: 627 x 642 km, 98.3° (Epoch: 21 October)

Event Time Altitude Azimuth Distance (km) Brightness Sun altitude
Exits shadow 04:04:11 29° 294° (WNW) 1,149 ? -18.2°
Drops below altitude 10° 04:07:04 10° 329° (NNW) 2,016 ? -17.7°
Sets 04:09:26 0° 339° (NNW) 2,928 ? -17.4°
